Kaltag, AK

4:47 PM AKDT on October 20, 2019 (GMT -0800)
Kaltag

Weather History for PAKV - September, 2019

Change the Weather History Date:

Monday, September 16, 2019

  Actual Average (PAGA) Record (PAGA)
Temperature  
Mean Temperature 46 °F -  
Max Temperature 57 °F 51 °F 66 °F (1991)
Min Temperature 30 °F 38 °F 19 °F (1992)
Degree Days  
Heating Degree Days 20    
Moisture  
Dew Point 41 °F    
Average Humidity 80    
Maximum Humidity 93    
Minimum Humidity 54    
Precipitation  
Precipitation 0.04 in - - ()
Sea Level Pressure  
Sea Level Pressure 29.74 in    
Wind  
Wind Speed 2 mph ()    
Max Wind Speed 8 mph    
Max Gust Speed 16 mph    
Visibility 10.0 miles    
Events Rain    
Averages and records for this station are not official NWS values.
T = Trace of Precipitation, MM = Missing Value Source: Averaged Metar Reports

Daily Weather History Graph

Daily Weather History Graph

Search for Another Location

Airport or City:

Astronomy

Sep. 16, 2019 Rise Set
Actual Time 8:00 AM AKDT 8:57 PM AKDT
Civil Twilight 7:11 AM AKDT 9:45 PM AKDT
Nautical Twilight 6:09 AM AKDT 10:47 PM AKDT
Astronomical Twilight 4:53 AM AKDT 12:01 AM AKDT
Moon 9:51 PM AKDT (9/16) 10:54 AM AKDT (9/16)
Length of Visible Light 14h 34m
Length of Day
12h 56m
Waning Gibbous, 94% of the Moon is Illuminated
Sep 16
Waning Gibbous
Sep 21
Last Quarter
Sep 28
New
Oct 5
First Quarter
Oct 13
Full

Hourly Weather History & Observations

Time (AKDT) Temp. Windchill Dew Point Humidity Pressure Visibility Wind Dir Wind Speed Gust Speed Precip Events Conditions
12:53 AM 48.9 °F - 46.0 °F 90% 29.62 in 10.0 mi SW 3.5 mph - N/A   Overcast
1:53 AM 48.9 °F - 46.0 °F 90% 29.64 in 10.0 mi SW 3.5 mph - 0.00 in   Overcast
2:53 AM 48.0 °F - 45.0 °F 89% 29.65 in 10.0 mi SSW 3.5 mph - N/A   Mostly Cloudy
3:53 AM 45.0 °F 43.5 °F 43.0 °F 93% 29.66 in 10.0 mi SW 3.5 mph - N/A   Scattered Clouds
4:53 AM 46.9 °F - 44.1 °F 90% 29.68 in 10.0 mi Calm Calm - N/A   Overcast
5:53 AM 46.9 °F - 44.1 °F 90% 29.70 in 10.0 mi SW 3.5 mph - N/A   Overcast
6:53 AM 45.0 °F - 43.0 °F 93% 29.70 in 10.0 mi Calm Calm - N/A   Scattered Clouds
7:53 AM 48.0 °F - 45.0 °F 89% 29.71 in 10.0 mi Calm Calm - 0.00 in Rain Light Rain
8:53 AM 48.0 °F - 45.0 °F 89% 29.72 in 9.0 mi West 3.5 mph - 0.03 in Rain Light Rain
9:53 AM 48.9 °F - 46.0 °F 90% 29.73 in 10.0 mi Calm Calm - 0.01 in Rain Light Rain
10:53 AM 50.0 °F - 46.9 °F 89% 29.74 in 10.0 mi Calm Calm - 0.00 in   Mostly Cloudy
11:53 AM 51.1 °F - 48.0 °F 89% 29.75 in 10.0 mi Calm Calm - N/A   Partly Cloudy
12:16 PM 52.0 °F - 48.0 °F 86% 29.74 in 10.0 mi Calm Calm - N/A   Partly Cloudy
12:53 PM 54.0 °F - 48.0 °F 80% 29.75 in 10.0 mi Calm Calm - N/A   Partly Cloudy
1:53 PM 54.0 °F - 46.9 °F 77% 29.75 in 10.0 mi East 3.5 mph - N/A   Mostly Cloudy
2:53 PM 51.1 °F - 43.0 °F 74% 29.75 in 10.0 mi East 3.5 mph - N/A   Partly Cloudy
3:53 PM 57.0 °F - 44.1 °F 62% 29.76 in 10.0 mi ENE 4.6 mph - N/A   Overcast
4:53 PM 54.0 °F - 37.9 °F 55% 29.76 in 10.0 mi North 8.1 mph - N/A   Overcast
5:53 PM 53.1 °F - 37.0 °F 55% 29.77 in 10.0 mi Variable 5.8 mph - N/A   Overcast
6:53 PM 52.0 °F - 36.0 °F 54% 29.79 in 10.0 mi North 8.1 mph 16.1 mph N/A   Mostly Cloudy
7:53 PM 48.0 °F - 32.0 °F 54% 29.81 in 10.0 mi NNW 8.1 mph - N/A   Clear
8:53 PM 44.1 °F - 30.0 °F 58% 29.82 in 10.0 mi Calm Calm - N/A   Clear
9:53 PM 36.0 °F 33.3 °F 30.9 °F 82% 29.83 in 10.0 mi Variable 3.5 mph - N/A   Partly Cloudy
10:53 PM 34.0 °F - 28.9 °F 82% 29.85 in 10.0 mi Calm Calm - N/A   Clear
11:53 PM 30.9 °F - 28.0 °F 89% 29.86 in 10.0 mi Calm Calm - N/A   Clear